Stations météo

Publicité
Tours, France (7240): Température de l'air & dewpoint: 19.06.2018 02:00:00 - 25.06.2018 02:00:00 (CEST)Tours, France (7240): Température de l'air 5cm: 19.06.2018 02:00:00 - 25.06.2018 02:00:00 (CEST)Tours, France (7240): Température de l'air -20cm & Température de l'air -100cm: 19.06.2018 02:00:00 - 25.06.2018 02:00:00 (CEST)Tours, France (7240): Vitesse du vent & gusts: 19.06.2018 02:00:00 - 25.06.2018 02:00:00 (CEST)Tours, France (7240): Direction du vent: 19.06.2018 02:00:00 - 25.06.2018 02:00:00 (CEST)Tours, France (7240): reduced air pressure: 19.06.2018 02:00:00 - 25.06.2018 02:00:00 (CEST)Tours, France (7240): visibility: 19.06.2018 02:00:00 - 25.06.2018 02:00:00 (CEST)Tours, France (7240): Ensoleillement: 19.06.2018 02:00:00 - 25.06.2018 02:00:00 (CEST)Tours, France (7240): Quantités de précipitations: 19.06.2018 02:00:00 - 25.06.2018 02:00:00 (CEST)
Date & Time tt [°C] td [°C] tt 5cm [°C] tt -20cm [°C] tt -100cm [°C] ff [km/h] ff [knt] fx [km/h] fx [knt] dd ppp [hPa] vv [km] sd [min] rr [mm]
25.06.2018 02:00:00 - - - - - - - - - - - - - -
25.06.2018 01:00:00 15,6 8,6 13,9 20,5 18,0 11 6 22 12 NE 1022,8 20 0 0,0
25.06.2018 00:00:00 16,1 8,8 12,8 20,5 18,0 10 6 18 10 NE 1022,6 20 0 0,0
24.06.2018 23:00:00 16,0 9,2 12,9 20,5 18,0 8 5 16 8 NE 1022,5 20 0 0,0
24.06.2018 22:00:00 18,3 9,1 15,5 20,5 18,0 8 4 21 12 NE 1021,9 20 30 0,0
24.06.2018 21:00:00 21,4 8,6 21,2 20,4 18,0 12 6 27 15 NE 1021,3 20 60 0,0
24.06.2018 20:00:00 23,0 8,7 23,9 20,4 18,1 15 8 29 15 ENE 1021,0 20 60 0,0
24.06.2018 19:00:00 24,0 7,2 26,4 20,2 18,0 15 8 32 17 NE 1020,9 20 56 0,0
24.06.2018 18:00:00 24,6 7,7 26,4 20,0 18,0 14 8 39 21 N 1021,0 20 54 0,0
24.06.2018 17:00:00 24,6 7,3 28,0 19,9 18,1 15 8 33 18 NNE 1021,5 20 60 0,0
24.06.2018 16:00:00 24,4 7,9 28,5 19,7 18,0 14 8 38 21 NE 1022,0 20 60 0,0
24.06.2018 15:00:00 23,5 6,7 27,9 19,7 18,1 18 10 32 18 NE 1022,3 20 60 0,0
24.06.2018 14:00:00 23,4 7,1 28,0 19,5 18,0 16 9 32 18 NE 1022,8 20 60 0,0
24.06.2018 13:00:00 22,7 8,8 28,2 19,5 18,0 14 7 29 16 NNE 1023,1 20 60 0,0
24.06.2018 12:00:00 21,8 9,3 25,8 19,5 18,0 12 6 23 13 NE 1023,2 20 60 0,0
24.06.2018 11:00:00 20,8 9,7 23,2 19,5 18,0 14 8 23 12 ENE 1023,5 20 60 0,0
24.06.2018 10:00:00 18,7 9,7 19,3 19,5 18,0 11 6 21 12 ENE 1023,6 20 57 0,0
24.06.2018 09:00:00 16,8 10,2 16,9 19,6 18,0 13 7 27 15 ENE 1023,6 20 57 0,0
24.06.2018 08:00:00 15,0 9,1 12,8 19,7 18,0 16 9 27 15 NE 1023,3 20 34 0,0
24.06.2018 07:00:00 13,2 9,1 11,9 19,8 18,0 10 5 19 11 ENE 1023,3 20 0 0,0
24.06.2018 06:00:00 13,4 8,9 12,1 19,8 18,0 11 6 23 13 NE 1023,0 20 0 0,0
24.06.2018 05:00:00 13,4 9,3 9,9 19,9 18,0 8 4 18 10 NE 1023,0 20 0 0,0
24.06.2018 04:00:00 12,5 9,3 9,8 20,0 18,0 6 4 13 7 ENE 1023,6 20 0 0,0
24.06.2018 03:00:00 13,0 9,3 9,8 20,1 18,0 5 3 17 9 NE 1023,8 20 0 0,0
24.06.2018 02:00:00 14,1 9,3 12,6 20,1 18,0 11 6 21 11 ENE 1024,2 20 0 0,0
24.06.2018 01:00:00 15,1 9,0 13,7 20,2 18,0 12 7 20 11 NE 1024,4 20 0 0,0
24.06.2018 00:00:00 15,7 8,9 13,9 20,2 18,0 8 5 16 9 NE 1024,4 20 0 0,0
23.06.2018 23:00:00 16,3 8,8 14,6 20,2 18,0 11 6 22 12 NE 1024,6 20 0 0,0
23.06.2018 22:00:00 17,8 8,6 16,1 20,2 18,0 11 6 19 10 NE 1024,2 20 30 0,0
23.06.2018 21:00:00 19,8 8,2 19,8 20,2 18,0 11 6 29 15 NE 1024,0 20 60 0,0
23.06.2018 20:00:00 20,9 7,5 21,2 20,2 18,0 14 8 32 18 NE 1024,1 20 9 0,0
23.06.2018 19:00:00 22,2 6,8 23,1 20,1 18,1 16 9 36 19 NE 1024,0 20 48 0,0
23.06.2018 18:00:00 23,4 4,8 26,5 19,9 18,0 20 11 36 19 ENE 1024,3 20 60 0,0
23.06.2018 17:00:00 23,6 4,0 26,9 19,8 18,0 16 9 38 20 NE 1024,8 20 60 0,0
23.06.2018 16:00:00 24,0 4,4 26,3 19,6 18,0 21 11 37 20 NE 1025,2 20 58 0,0
23.06.2018 15:00:00 23,3 3,8 27,3 19,5 18,0 21 12 35 19 ENE 1025,8 20 60 0,0
23.06.2018 14:00:00 22,1 4,2 26,8 19,4 18,0 22 12 35 19 NE 1026,2 20 60 0,0
23.06.2018 13:00:00 21,0 4,5 25,7 19,4 18,0 18 10 35 19 NE 1026,8 20 60 0,0
23.06.2018 12:00:00 19,3 5,0 23,6 19,4 18,0 19 10 34 18 NE 1027,3 20 60 0,0
23.06.2018 11:00:00 18,1 5,3 20,9 19,5 18,0 18 10 32 18 NE 1027,4 20 60 0,0
23.06.2018 10:00:00 16,0 5,0 18,5 19,5 18,0 21 11 32 18 ENE 1027,9 20 60 0,0
23.06.2018 09:00:00 14,3 5,4 15,1 19,6 18,0 16 9 30 16 NE 1028,4 20 60 0,0
23.06.2018 08:00:00 12,4 5,8 11,7 19,7 18,0 18 10 31 17 ENE 1028,3 20 60 0,0
23.06.2018 07:00:00 10,8 5,5 9,3 19,8 18,0 15 8 30 16 ENE 1028,1 20 32 0,0
23.06.2018 06:00:00 10,5 5,7 8,6 19,9 18,0 16 8 26 14 ENE 1028,0 20 0 0,0
23.06.2018 05:00:00 10,9 6,0 9,4 20,0 18,0 13 7 23 12 NE 1027,9 20 0 0,0
23.06.2018 04:00:00 11,8 5,9 10,3 20,1 18,0 13 7 26 14 NE 1027,8 20 0 0,0
23.06.2018 03:00:00 12,4 6,4 10,8 20,2 18,0 12 7 24 13 NE 1027,6 20 0 0,0
23.06.2018 02:00:00 13,5 7,5 11,9 20,3 18,0 12 6 25 14 NE 1027,6 20 0 0,0
23.06.2018 01:00:00 14,1 7,8 12,4 20,4 18,0 9 5 18 10 NE 1027,7 20 0 0,0
23.06.2018 00:00:00 14,8 8,1 12,8 20,4 18,0 6 4 16 9 NNE 1027,7 20 0 0,0
22.06.2018 23:00:00 15,8 8,0 13,9 20,5 18,0 8 4 14 8 NNE 1027,4 20 0 0,0
22.06.2018 22:00:00 17,1 8,0 15,1 20,5 18,0 8 5 28 15 NE 1027,0 20 30 0,0
22.06.2018 21:00:00 19,5 7,2 20,0 20,4 18,0 18 10 38 21 NE 1026,7 20 60 0,0
22.06.2018 20:00:00 20,7 7,0 22,6 20,4 18,0 19 11 34 18 ENE 1026,5 20 60 0,0
22.06.2018 19:00:00 21,7 7,1 24,8 20,3 18,0 19 11 41 22 NE 1026,5 20 60 0,0
22.06.2018 18:00:00 21,9 6,9 25,7 20,2 18,0 18 10 36 19 NE 1026,7 20 60 0,0
22.06.2018 17:00:00 21,7 6,4 25,5 20,1 18,0 19 11 44 24 NE 1026,8 20 60 0,0
22.06.2018 16:00:00 21,1 6,6 25,5 19,9 18,0 19 10 45 24 NE 1027,2 20 60 0,0
22.06.2018 15:00:00 20,8 6,7 25,5 19,9 18,0 23 12 46 25 NE 1027,6 20 60 0,0
22.06.2018 14:00:00 20,5 6,8 24,5 19,8 18,0 22 12 45 24 NE 1028,0 20 60 0,0
22.06.2018 13:00:00 19,2 5,6 23,4 19,8 17,9 21 12 41 22 NE 1028,2 20 60 0,0
22.06.2018 12:00:00 18,2 4,7 21,9 19,8 17,9 24 13 46 25 ENE 1028,5 20 60 0,0
22.06.2018 11:00:00 17,5 4,8 19,4 19,9 17,9 29 16 48 26 ENE 1028,6 20 60 0,0
22.06.2018 10:00:00 15,4 3,5 16,6 20,0 17,9 25 14 41 22 ENE 1028,9 20 60 0,0
22.06.2018 09:00:00 13,2 4,3 13,6 20,2 17,9 19 10 34 19 ENE 1029,0 20 60 0,0
22.06.2018 08:00:00 11,0 4,0 9,5 20,3 17,9 14 7 26 14 NE 1028,8 20 60 0,0
22.06.2018 07:00:00 9,3 3,7 7,1 20,4 17,9 14 7 22 12 NE 1028,4 20 32 0,0
22.06.2018 06:00:00 8,7 3,9 6,2 20,6 17,9 9 5 19 10 NE 1028,2 20 0 0,0
22.06.2018 05:00:00 8,7 4,5 6,8 20,7 17,9 10 6 24 13 ENE 1027,9 20 0 0,0
22.06.2018 04:00:00 9,9 5,1 8,4 20,8 17,9 13 7 29 16 ENE 1027,7 20 0 0,0
22.06.2018 03:00:00 11,2 5,9 9,8 20,9 17,9 16 9 32 17 ENE 1027,7 20 0 0,0
22.06.2018 02:00:00 12,3 6,6 10,9 21,0 17,9 15 8 34 19 NE 1027,3 20 0 0,0
22.06.2018 01:00:00 13,6 7,4 12,3 21,1 17,9 18 10 34 18 NE 1026,8 20 0 0,0
22.06.2018 00:00:00 14,6 7,9 13,3 21,2 17,9 18 10 29 16 N 1026,2 20 0 0,0
21.06.2018 23:00:00 15,9 8,1 14,7 21,3 17,9 18 10 31 17 NNE 1025,6 20 0 0,0
21.06.2018 22:00:00 16,9 8,1 15,4 21,3 17,9 16 9 33 18 NNE 1024,5 20 2 0,0
21.06.2018 21:00:00 19,3 7,7 19,2 21,3 17,8 20 11 39 21 NNE 1023,9 20 51 0,0
21.06.2018 20:00:00 20,9 8,2 21,9 21,2 17,8 18 10 33 18 NNE 1023,4 20 60 0,0
21.06.2018 19:00:00 22,8 9,2 26,7 21,2 17,8 23 12 38 20 N 1022,7 19 60 0,0
21.06.2018 18:00:00 23,3 10,0 26,7 21,0 17,8 19 10 32 17 N 1022,4 20 60 0,0
21.06.2018 17:00:00 23,7 11,1 26,1 20,9 17,8 19 10 32 17 N 1022,2 20 54 0,0
21.06.2018 16:00:00 23,2 12,2 25,9 20,8 17,8 12 7 31 17 NNE 1022,0 20 26 0,0
21.06.2018 15:00:00 23,8 13,9 25,3 20,8 17,8 14 8 28 15 NNW 1021,9 20 39 0,0
21.06.2018 14:00:00 22,1 13,4 24,5 20,8 17,8 12 7 29 16 N 1022,0 20 30 0,0
21.06.2018 13:00:00 21,0 14,2 25,2 20,7 17,8 18 10 31 17 N 1022,3 20 4 0,0
21.06.2018 12:00:00 20,0 14,4 22,2 20,8 17,8 14 8 28 15 N 1022,3 20 0 0,0
21.06.2018 11:00:00 18,9 14,0 21,7 20,8 17,8 16 9 29 15 N 1022,2 20 1 0,0
21.06.2018 10:00:00 18,1 14,0 18,2 20,9 17,8 16 9 33 18 N 1021,9 20 7 0,0
21.06.2018 09:00:00 17,2 14,3 18,4 21,0 17,8 21 11 35 19 N 1021,9 20 40 0,0
21.06.2018 08:00:00 18,4 15,1 18,0 21,0 17,8 13 7 24 13 N 1020,9 20 60 0,0
21.06.2018 07:00:00 17,1 14,9 13,8 21,1 17,7 9 5 16 9 NNW 1020,5 38 33 0,0
21.06.2018 06:00:00 17,1 14,4 14,6 21,2 17,7 4 2 15 8 N 1019,5 29 0 0,0
21.06.2018 05:00:00 17,0 14,6 14,9 21,3 17,7 7 4 16 9 N 1019,8 44 0 0,0
21.06.2018 04:00:00 17,0 13,9 14,5 21,4 17,7 8 4 17 9 NNW 1019,8 60 0 0,0
21.06.2018 03:00:00 17,1 14,4 14,8 21,5 17,8 8 4 11 6 NNW 1019,5 60 0 0,0
21.06.2018 02:00:00 18,4 14,7 13,4 21,5 17,7 6 3 8 4 N 1019,6 60 0 0,0
21.06.2018 01:00:00 19,0 14,5 14,4 21,5 17,7 4 2 6 4 N 1019,5 18 0 0,0
21.06.2018 00:00:00 20,1 14,5 14,7 21,6 17,7 4 2 14 8 N 1019,5 59 0 0,0
20.06.2018 23:00:00 20,8 14,4 17,2 21,6 17,7 9 5 13 7 NE 1019,5 58 0 0,0
20.06.2018 22:00:00 21,5 14,9 18,7 21,5 17,7 9 5 13 7 ENE 1018,9 57 30 0,0
20.06.2018 21:00:00 26,6 15,9 27,7 21,5 17,7 7 4 14 8 NE 1018,5 55 60 0,0
20.06.2018 20:00:00 28,8 13,1 31,1 21,4 17,7 9 5 18 10 ENE 1018,4 55 60 0,0
20.06.2018 19:00:00 29,6 12,5 33,4 21,2 17,7 11 6 21 11 ENE 1018,5 60 60 0,0
20.06.2018 18:00:00 29,8 12,2 34,3 21,0 17,7 11 6 22 12 E 1018,7 46 60 0,0
20.06.2018 17:00:00 29,8 10,4 34,7 20,8 17,7 6 4 21 11 NE 1019,2 18 60 0,0
20.06.2018 16:00:00 29,6 12,1 33,8 20,6 17,7 10 6 23 12 ENE 1019,6 37 60 0,0
20.06.2018 15:00:00 29,1 12,5 34,0 20,4 17,7 10 6 24 13 ENE 1019,9 31 60 0,0
20.06.2018 14:00:00 28,2 14,1 33,5 20,3 17,7 9 5 23 12 ENE 1020,4 17 60 0,0
20.06.2018 13:00:00 27,1 14,1 33,6 20,1 17,7 11 6 26 14 E 1020,8 15 60 0,0
20.06.2018 12:00:00 25,8 17,2 30,0 20,1 17,7 7 4 16 9 E 1021,1 14 60 0,0
20.06.2018 11:00:00 24,2 17,4 28,9 20,1 17,7 9 5 22 12 E 1021,2 10 60 0,0
20.06.2018 10:00:00 22,1 16,6 25,0 20,1 17,7 16 8 25 14 E 1021,5 10 60 0,0
20.06.2018 09:00:00 19,6 16,2 19,5 20,2 17,7 12 6 24 13 E 1021,7 11 60 0,0
20.06.2018 08:00:00 17,7 15,5 15,2 20,3 17,7 12 6 21 11 ENE 1021,7 11 60 0,0
20.06.2018 07:00:00 15,7 14,7 13,8 20,3 17,7 12 6 18 10 ENE 1021,9 10 33 0,0
20.06.2018 06:00:00 14,9 14,3 12,9 20,4 17,7 11 6 16 8 ENE 1022,1 3,0 0 0,0
20.06.2018 05:00:00 14,6 13,8 12,9 20,5 17,7 9 5 11 6 ENE 1022,3 4,1 0 0,2
20.06.2018 04:00:00 15,2 14,1 13,6 20,6 17,7 7 4 14 8 E 1022,6 15 0 0,0
20.06.2018 03:00:00 16,6 15,3 15,2 20,6 17,7 11 6 16 9 ENE 1022,6 52 0 0,0
20.06.2018 02:00:00 16,7 15,2 15,2 20,7 17,7 8 4 16 9 ENE 1022,9 58 0 0,0
20.06.2018 01:00:00 17,8 15,6 15,5 20,7 17,7 7 4 13 7 NE 1023,0 57 0 0,0
20.06.2018 00:00:00 17,8 15,4 15,4 20,7 17,7 4 2 11 6 NE 1023,4 15 0 0,0
19.06.2018 23:00:00 18,4 15,5 15,0 20,8 17,7 4 2 13 7 NE 1023,5 54 0 0,0
19.06.2018 22:00:00 19,9 15,9 18,2 20,7 17,7 6 4 16 9 NE 1023,3 46 29 0,0
19.06.2018 21:00:00 22,5 16,5 21,9 20,7 17,7 9 5 19 10 NE 1023,2 28 60 0,0
19.06.2018 20:00:00 23,6 16,4 24,8 20,6 17,7 9 5 21 11 NE 1023,5 19 60 0,0
19.06.2018 19:00:00 24,0 16,3 27,0 20,4 17,7 12 7 25 13 ENE 1023,7 18 60 0,0
19.06.2018 18:00:00 24,2 17,0 26,9 20,3 17,7 11 6 23 13 N 1024,2 21 57 0,0
19.06.2018 17:00:00 23,1 15,9 26,8 20,2 17,7 10 5 25 13 NNE 1024,7 24 50 0,0
19.06.2018 16:00:00 22,4 15,7 26,4 20,1 17,7 9 5 21 11 NNE 1025,3 30 46 0,0
19.06.2018 15:00:00 22,1 16,1 26,1 20,0 17,7 12 7 20 11 N 1025,7 37 18 0,0
19.06.2018 14:00:00 20,4 15,4 21,9 20,0 17,6 6 3 16 8 ENE 1026,2 47 0 0,0
19.06.2018 13:00:00 18,9 14,8 21,5 20,0 17,6 8 5 22 12 ENE 1026,6 53 0 0,0
19.06.2018 12:00:00 18,5 14,6 19,4 20,0 17,6 7 4 16 9 NNE 1026,8 35 0 0,0
19.06.2018 11:00:00 18,0 14,7 19,3 20,0 17,7 9 5 15 8 NE 1027,0 32 0 0,0
19.06.2018 10:00:00 18,1 14,4 19,2 20,1 17,7 8 4 19 10 NNE 1027,1 42 0 0,0
19.06.2018 09:00:00 17,7 15,0 17,2 20,1 17,6 8 5 15 8 NE 1026,8 29 0 0,0
19.06.2018 08:00:00 16,0 14,2 14,9 20,2 17,6 4 2 8 5 NNE 1026,8 32 16 0,0
19.06.2018 07:00:00 15,1 13,5 10,7 20,3 17,7 3 2 5 3 NNW 1026,6 41 33 0,0
19.06.2018 06:00:00 14,2 12,8 11,1 20,4 17,6 3 2 10 5 ENE 1026,4 31 0 0,0
19.06.2018 05:00:00 15,1 13,3 12,3 20,4 17,6 4 2 11 6 N 1026,0 43 0 0,0
19.06.2018 04:00:00 15,6 13,4 13,9 20,5 17,6 7 4 15 8 N 1025,7 47 0 0,0
19.06.2018 03:00:00 16,0 13,7 14,3 20,6 17,7 9 5 15 8 NNW 1025,6 41 0 0,0
19.06.2018 02:00:00 16,8 13,9 14,7 20,6 17,6 11 6 21 11 NW 1025,6 53 0 0,0

tt = Température de l'air
td = dewpoint
tt 5cm = Température de l'air 5cm
tt -20cm = Température de l'air -20cm
tt -100cm = Température de l'air -100cm
ff = Vitesse du vent
fx = gusts
dd = Direction du vent
ppp = reduced air pressure
vv = visibility
sd = Ensoleillement
rr = Quantités de précipitations

stations d'obs. à proximité